Airport ICAO


11:58 UTC

26°C

Clear skies


An affordable passengers' Moving Map for your aircraft. Made for the iPad and the iPhone
More information here

LIMG Albenga


Albenga ITALY   VFR CAVOK


METAR LIMG 191050Z 01013G23KT CAVOK 26/06 Q1026 1h08min





NOTAMS

OPEN